MST,Max TemperatureF,Mean TemperatureF,Min TemperatureF,Max Dew PointF,MeanDew PointF,Min DewpointF,Max Humidity, Mean Humidity, Min Humidity, Max Sea Level PressureIn, Mean Sea Level PressureIn, Min Sea Level PressureIn, Max VisibilityMiles, Mean VisibilityMiles, Min VisibilityMiles, Max Wind SpeedMPH, Mean Wind SpeedMPH, Max Gust SpeedMPH,PrecipitationIn, CloudCover, Events, WindDirDegrees
2012-12-1,61,47,32,34,31,28,76,56,36,29.76,29.72,29.65,,,,20,8,23,0.00,,,248
2012-12-2,60,44,27,36,28,24,78,55,32,29.74,29.49,29.25,,,,48,12,59,0.00,,,179
2012-12-3,53,42,31,38,20,15,71,47,22,30.04,29.81,29.46,,,,52,22,60,0.00,,,277
2012-12-4,49,38,26,20,18,16,69,48,26,30.19,30.08,29.92,,,,16,9,18,0.00,,,196
2012-12-5,56,41,26,33,25,19,75,59,43,29.95,29.79,29.64,,,,37,9,45,0.00,,,293
2012-12-6,41,35,28,23,15,11,63,47,30,30.02,29.96,29.89,,,,25,10,31,0.00,,,264
2012-12-7,34,27,20,29,26,18,100,83,66,29.93,29.88,29.79,,,,13,6,15,0.06,,,221
2012-12-8,36,21,6,26,15,1,96,80,64,30.16,29.79,29.64,,,,32,15,37,0.03,,,333
2012-12-9,12,4,-5,2,-3,-8,87,74,61,30.48,30.31,30.04,,,,28,12,32,0.00,,,264
2012-12-10,30,14,-2,23,14,-7,88,76,65,29.99,29.86,29.81,,,,30,12,41,0.00,,,276
2012-12-11,34,24,14,23,18,11,92,72,51,29.84,29.71,29.56,,,,18,10,21,0.00,,,240
2012-12-12,39,31,23,29,25,21,100,81,61,29.84,29.66,29.57,,,,17,7,22,0.00,,,70
2012-12-13,30,25,20,28,24,20,100,94,88,30.00,29.91,29.85,,,,13,7,17,0.00,,,178
2012-12-14,43,28,13,31,22,12,100,79,57,29.84,29.71,29.61,,,,10,4,12,0.00,,,33
2012-12-15,36,27,18,23,20,15,84,68,52,29.79,29.75,29.65,,,,17,7,20,0.00,,,327
2012-12-16,31,26,20,24,21,17,100,85,69,29.72,29.69,29.66,,,,10,6,13,0.00,,,147
2012-12-17,35,25,15,20,17,12,92,70,47,29.68,29.52,29.42,,,,17,7,21,0.00,,,185
2012-12-18,36,26,16,26,16,9,92,65,38,29.77,29.62,29.43,,,,41,18,48,0.00,,,274
2012-12-19,30,20,10,17,11,5,88,67,46,30.14,29.99,29.77,,,,29,13,33,0.00,,,284
2012-12-20,38,23,8,13,8,1,76,53,29,30.15,30.10,30.06,,,,17,7,20,0.00,,,241
2012-12-21,47,33,18,19,13,9,74,50,26,30.08,30.01,29.93,,,,9,3,10,0.00,,,223
2012-12-22,29,18,6,15,11,4,92,75,58,30.14,30.05,29.93,,,,20,8,24,0.00,,,50
2012-12-23,18,9,0,10,5,-2,91,79,67,30.12,30.04,29.95,,,,20,8,23,0.00,,,354
2012-12-24,10,3,-5,4,-1,-9,91,86,80,30.41,30.23,30.09,,,,14,7,16,0.00,,,71
2012-12-25,11,5,-1,6,1,-4,91,84,76,30.48,30.37,30.21,,,,8,3,9,0.05,,,194
2012-12-26,13,3,-7,6,-1,-9,91,83,75,30.18,30.06,29.94,,,,15,7,17,0.06,,,85
2012-12-27,13,6,-1,7,3,-3,95,83,70,30.08,30.01,29.93,,,,14,6,16,0.09,,,356
2012-12-28,25,10,-5,19,6,-6,95,84,73,30.11,30.06,30.01,,,,17,8,21,0.00,,,275
2012-12-29,30,20,10,17,11,7,92,75,57,30.12,30.05,29.96,,,,16,9,21,0.00,,,268
2012-12-30,26,17,8,20,14,6,92,77,62,30.14,30.04,29.94,,,,31,12,35,0.00,,,288
2012-12-31,26,20,13,17,14,8,96,82,68,30.12,30.10,30.05,,,,13,5,15,0.00,,,252